When you browse on this site, cookies collect data to enhance your experience and personalize the content and advertising you see.
Visit our Privacy Policy to learn more. By continuing to use the site, you agree to this use of cookies and data.
  • în România
  • Lista ţărilor
  • Pe 7 zile
  • Temperatura apei
  • Meteo pe hartă
  • Widget-uri
  • user-avatar
    Intrare

    Meteo pe oră la Leknes

    Astăzi, 28 Mai, Joi

    Timp Temperatura Precipitaţii Vânt Presiune Umiditate
    00:00 +1°C° 0.2 mm 10 m/s 743 mmHg 81%
    01:00 +1°C° 0 mm 10 m/s 743 mmHg 82%
    02:00 +1°C° 0.2 mm 10 m/s 743 mmHg 84%
    03:00 +1°C° 0.2 mm 9 m/s 742 mmHg 86%
    04:00 +2°C° 0.2 mm 9 m/s 742 mmHg 87%
    05:00 +2°C° 0.3 mm 8 m/s 742 mmHg 85%
    06:00 +3°C° 0.3 mm 7 m/s 742 mmHg 83%
    07:00 +3°C° 0.3 mm 6 m/s 742 mmHg 81%
    08:00 +3°C° 0.1 mm 6 m/s 743 mmHg 80%
    09:00 +4°C° 0.1 mm 6 m/s 743 mmHg 78%
    10:00 +4°C° 0.1 mm 6 m/s 743 mmHg 77%
    11:00 +4°C° 0.1 mm 6 m/s 744 mmHg 78%
    12:00 +4°C° 0.1 mm 6 m/s 744 mmHg 78%
    13:00 +4°C° 0.1 mm 7 m/s 744 mmHg 78%
    14:00 +4°C° 0.1 mm 7 m/s 744 mmHg 78%
    15:00 +4°C° 0.1 mm 7 m/s 745 mmHg 78%
    16:00 +4°C° 0.1 mm 7 m/s 745 mmHg 78%
    17:00 +4°C° 0.1 mm 7 m/s 745 mmHg 81%
    18:00 +3°C° 0.1 mm 7 m/s 745 mmHg 83%
    19:00 +3°C° 0.1 mm 7 m/s 745 mmHg 85%
    20:00 +3°C° 0.2 mm 7 m/s 745 mmHg 87%
    21:00 +2°C° 0.2 mm 8 m/s 744 mmHg 89%
    22:00 +2°C° 0.2 mm 8 m/s 744 mmHg 91%
    23:00 +2°C° 0.5 mm 9 m/s 744 mmHg 93%

    Mâine, 29 Mai, Vineri

    Timp Temperatura Precipitaţii Vânt Presiune Umiditate
    00:00 +2°C° 0.5 mm 9 m/s 744 mmHg 94%
    01:00 +2°C° 0.5 mm 9 m/s 744 mmHg 95%
    02:00 +2°C° 0.9 mm 9 m/s 744 mmHg 96%
    03:00 +2°C° 0.9 mm 9 m/s 744 mmHg 97%
    04:00 +3°C° 0.9 mm 9 m/s 744 mmHg 97%
    05:00 +3°C° 0.6 mm 9 m/s 744 mmHg 97%
    06:00 +3°C° 0.6 mm 9 m/s 744 mmHg 97%
    07:00 +3°C° 0.6 mm 9 m/s 745 mmHg 96%
    08:00 +4°C° 0.4 mm 8 m/s 745 mmHg 96%
    09:00 +4°C° 0.4 mm 7 m/s 746 mmHg 96%
    10:00 +4°C° 0.4 mm 7 m/s 746 mmHg 95%
    11:00 +4°C° 0.1 mm 6 m/s 747 mmHg 95%
    12:00 +4°C° 0.1 mm 6 m/s 747 mmHg 94%
    13:00 +4°C° 0.1 mm 6 m/s 748 mmHg 94%
    14:00 +4°C° 0 mm 6 m/s 748 mmHg 92%
    15:00 +5°C° 0 mm 5 m/s 749 mmHg 91%
    16:00 +5°C° 0 mm 5 m/s 749 mmHg 89%
    17:00 +5°C° 0 mm 5 m/s 749 mmHg 88%
    18:00 +5°C° 0 mm 5 m/s 749 mmHg 87%
    19:00 +5°C° 0 mm 4 m/s 750 mmHg 86%
    20:00 +5°C° 0 mm 5 m/s 750 mmHg 89%
    21:00 +5°C° 0 mm 5 m/s 750 mmHg 92%
    22:00 +5°C° 0 mm 5 m/s 750 mmHg 95%
    23:00 +5°C° 0 mm 5 m/s 751 mmHg 95%

    Poimâine, 30 Mai, Sâmbătă

    Timp Temperatura Precipitaţii Vânt Presiune Umiditate
    00:00 +5°C° 0 mm 5 m/s 751 mmHg 96%
    01:00 +5°C° 0 mm 5 m/s 751 mmHg 97%
    02:00 +4°C° 0 mm 6 m/s 751 mmHg 97%
    03:00 +4°C° 0 mm 6 m/s 751 mmHg 97%
    04:00 +4°C° 0 mm 7 m/s 751 mmHg 97%
    05:00 +5°C° 0 mm 7 m/s 752 mmHg 96%
    06:00 +5°C° 0 mm 7 m/s 752 mmHg 95%
    07:00 +5°C° 0 mm 7 m/s 752 mmHg 93%
    08:00 +6°C° 0 mm 7 m/s 752 mmHg 90%
    09:00 +6°C° 0 mm 7 m/s 752 mmHg 87%
    10:00 +8°C° 0 mm 7 m/s 752 mmHg 83%
    11:00 +8°C° 0 mm 7 m/s 753 mmHg 80%
    12:00 +9°C° 0 mm 7 m/s 753 mmHg 78%
    13:00 +9°C° 0 mm 6 m/s 753 mmHg 75%
    14:00 +9°C° 0 mm 6 m/s 753 mmHg 74%
    15:00 +9°C° 0 mm 6 m/s 753 mmHg 72%
    16:00 +9°C° 0 mm 5 m/s 753 mmHg 71%
    17:00 +9°C° 0 mm 5 m/s 753 mmHg 72%
    18:00 +9°C° 0 mm 5 m/s 753 mmHg 73%
    19:00 +10°C° 0 mm 4 m/s 753 mmHg 74%
    20:00 +8°C° 0 mm 4 m/s 753 mmHg 76%
    21:00 +8°C° 0 mm 4 m/s 753 mmHg 78%
    22:00 +7°C° 0 mm 4 m/s 753 mmHg 80%
    23:00 +7°C° 0 mm 4 m/s 753 mmHg 80%

    31 Mai, Duminică

    Timp Temperatura Precipitaţii Vânt Presiune Umiditate
    00:00 +7°C° 0 mm 4 m/s 752 mmHg 81%
    01:00 +7°C° 0 mm 4 m/s 752 mmHg 81%
    02:00 +8°C° 0 mm 3 m/s 752 mmHg 81%
    03:00 +8°C° 0 mm 3 m/s 752 mmHg 80%
    04:00 +9°C° 0 mm 3 m/s 752 mmHg 80%
    05:00 +10°C° 0 mm 3 m/s 752 mmHg 77%
    06:00 +10°C° 0 mm 3 m/s 752 mmHg 74%
    07:00 +12°C° 0 mm 2 m/s 752 mmHg 71%
    08:00 +13°C° 0 mm 2 m/s 752 mmHg 69%
    09:00 +13°C° 0 mm 2 m/s 752 mmHg 66%
    10:00 +14°C° 0 mm 2 m/s 752 mmHg 64%
    11:00 +15°C° 0 mm 2 m/s 752 mmHg 62%
    12:00 +16°C° 0 mm 2 m/s 752 mmHg 59%
    13:00 +16°C° 0 mm 2 m/s 752 mmHg 57%
    14:00 +16°C° 0 mm 2 m/s 751 mmHg 57%
    15:00 +17°C° 0 mm 2 m/s 751 mmHg 57%
    16:00 +17°C° 0 mm 2 m/s 751 mmHg 57%
    17:00 +16°C° 0 mm 2 m/s 751 mmHg 58%
    18:00 +16°C° 0 mm 2 m/s 751 mmHg 59%
    19:00 +16°C° 0 mm 2 m/s 750 mmHg 60%
    20:00 +14°C° 0 mm 3 m/s 750 mmHg 62%
    21:00 +13°C° 0 mm 3 m/s 750 mmHg 65%
    22:00 +12°C° 0 mm 3 m/s 750 mmHg 68%
    23:00 +12°C° 0 mm 3 m/s 750 mmHg 69%

    1 Iunie, Luni

    Timp Temperatura Precipitaţii Vânt Presiune Umiditate
    00:00 +11°C° 0 mm 3 m/s 750 mmHg 71%
    01:00 +10°C° 0 mm 3 m/s 749 mmHg 72%
    02:00 +12°C° 0 mm 2 m/s 749 mmHg 72%
    03:00 +12°C° 0 mm 2 m/s 749 mmHg 72%
    04:00 +12°C° 0 mm 2 m/s 749 mmHg 71%
    05:00 +12°C° 0 mm 1 m/s 748 mmHg 69%
    06:00 +13°C° 0 mm 1 m/s 748 mmHg 68%
    07:00 +13°C° 0 mm 1 m/s 748 mmHg 66%
    08:00 +14°C° 0 mm 1 m/s 748 mmHg 63%
    09:00 +14°C° 0 mm 0 m/s 748 mmHg 60%
    10:00 +14°C° 0 mm 0 m/s 748 mmHg 57%
    11:00 +14°C° 0 mm 0 m/s 748 mmHg 56%
    12:00 +16°C° 0 mm 1 m/s 748 mmHg 56%
    13:00 +16°C° 0 mm 1 m/s 747 mmHg 55%
    14:00 +16°C° 0 mm 1 m/s 747 mmHg 55%
    15:00 +15°C° 0 mm 2 m/s 747 mmHg 56%
    16:00 +15°C° 0 mm 2 m/s 747 mmHg 56%
    17:00 +15°C° 0 mm 2 m/s 746 mmHg 56%
    18:00 +14°C° 0 mm 2 m/s 746 mmHg 57%
    19:00 +14°C° 0 mm 2 m/s 746 mmHg 57%
    20:00 +12°C° 0 mm 3 m/s 746 mmHg 58%
    21:00 +12°C° 0 mm 3 m/s 746 mmHg 59%
    22:00 +12°C° 0 mm 4 m/s 746 mmHg 60%
    23:00 +11°C° 0 mm 4 m/s 745 mmHg 62%

    2 Iunie, Marţi

    Timp Temperatura Precipitaţii Vânt Presiune Umiditate
    00:00 +10°C° 0 mm 4 m/s 745 mmHg 63%
    01:00 +8°C° 0 mm 4 m/s 745 mmHg 65%
    02:00 +8°C° 0 mm 4 m/s 744 mmHg 66%
    03:00 +8°C° 0 mm 5 m/s 744 mmHg 67%
    04:00 +8°C° 0 mm 5 m/s 744 mmHg 68%
    05:00 +9°C° 0 mm 6 m/s 743 mmHg 68%
    06:00 +9°C° 0 mm 6 m/s 743 mmHg 68%
    07:00 +9°C° 0 mm 7 m/s 743 mmHg 69%
    08:00 +9°C° 0 mm 7 m/s 743 mmHg 69%
    09:00 +10°C° 0 mm 7 m/s 742 mmHg 68%
    10:00 +10°C° 0 mm 7 m/s 742 mmHg 68%
    11:00 +10°C° 0 mm 7 m/s 742 mmHg 72%
    12:00 +9°C° 0 mm 8 m/s 742 mmHg 75%
    13:00 +9°C° 0 mm 8 m/s 742 mmHg 79%
    14:00 +8°C° 0 mm 7 m/s 742 mmHg 81%
    15:00 +6°C° 0 mm 7 m/s 743 mmHg 83%
    16:00 +7°C° 0 mm 6 m/s 743 mmHg 85%
    17:00 +6°C° 0 mm 5 m/s 743 mmHg 85%
    18:00 +5°C° 0 mm 5 m/s 743 mmHg 84%
    19:00 +5°C° 0 mm 4 m/s 743 mmHg 84%
    20:00 +5°C° 0 mm 3 m/s 743 mmHg 82%
    21:00 +5°C° 0 mm 3 m/s 742 mmHg 80%
    22:00 +5°C° 0 mm 2 m/s 742 mmHg 78%
    23:00 +5°C° 0 mm 2 m/s 742 mmHg 81%
    Arată mai mult